Other Public Products
Issued by NWS Charleston, SC

Current Version | Previous Version | Graphics & Text | Print | Product List | Glossary On
Versions: 1 2 3 4 5 6 7 8 9 10 11 12 13 14 15 16 17 18 19 20 21 22 23 24 25 26 27 28 29 30 31 32 33 34 35 36 37 38 39 40 41 42 43 44 45 46 47 48 49 50
000
FPUS82 KCHS 260727
OPUCHS

TEST...KCHS/KSAV Gateway Observations...TEST
National Weather Service Charleston SC
300 AM EDT THU APR 26 2018

NOTE: "fair" indicates few or no clouds below 12,000 feet with no
significant weather and/or obstructions to visibility.

SCZ050-WAZ558-NCZ071-TXZ119-213-PAZ071-DCZ001-FLZ074-172-MI076-
NYZ176-178-MAZ016-IL014-TNZ027-NJZ106-GAZ044-MD014-260800-

...Gateway Observations for Charleston International...

CITY           SKY/WX    TMP DP  RH WIND       PRES   REMARKS
Chas Airport   FAIR      62  55  77 W7        29.84S
Seattle        PTCLDY    62  40  44 N12       30.06R
Charlotte      CLOUDY    58  53  84 NW3       29.85S
Dallas DFW     CLEAR     50  46  86 NW9       30.05F
Dallas Love    CLEAR     50  47  89 NW6       30.07F
Philladelphia  MOCLDY    60  51  72 NW12      29.66S
Wash National  FAIR      57  45  64 NW16      29.78R
Baltimore      FAIR      54  46  74 W20G26    29.73R
Miami          FAIR      67  64  90 W5        29.94F
Detroit        FAIR      40  35  83 SW5       29.95S WCI  37
Newark         CLOUDY    56  56 100 CALM      29.59F FOG
Laguardia      CLOUDY    55  53  93 CALM      29.59S FOG
J F K          CLOUDY    51  51 100 SW5       29.60F FOG
Boston Logan   FOG       51  51 100 SE5       29.61F VSB 1/2
Ft. Lauderdale FAIR      69  62  78 W9        29.92F
Chicago O`Hare FAIR      38  29  70 CALM      29.97F
Chicago Midway FAIR      40  30  67 CALM      29.97F
Houston Bush   FAIR      61  54  77 N12       30.02F
Houston Hobby  MOCLDY    64  54  69 N13       30.01S
Nashville      CLOUDY    59  51  75 W3        29.88F
Atlanta        FAIR      52  50  93 W5        29.87F

$$

GAZ044-118-TXZ119-213-NCZ071-DCZ001-MDZ014-506-PAZ021-071-NJZ106-
NYZ176-178-MAZ106-OHZ011-021-055-MIZ076-KYZ091-ILZ014-INZ047-
MNZ060-ONZ431-260800-

...Gateway Observations for Savannah International...

CITY           SKY/WX    TMP DP  RH WIND       PRES   REMARKS
Savannah Arpt  FAIR      59  54  83 W6        29.86F
Atlanta        FAIR      52  50  93 W5        29.87F
Charlotte      CLOUDY    58  53  84 NW3       29.85S
Dallas DFW     CLEAR     50  46  86 NW9       30.05F
Houston Bush   FAIR      61  54  77 N12       30.02F
Wash National  FAIR      57  45  64 NW16      29.78R
Wash Dulles    FAIR      53  42  66 NW12G20   29.80R
Baltimore      FAIR      54  46  74 W20G26    29.73R
Philadelphia   MOCLDY    60  51  72 NW12      29.66S
Newark         CLOUDY    56  56 100 CALM      29.59F FOG
Laguardia      CLOUDY    55  53  93 CALM      29.59S FOG
J F K          CLOUDY    51  51 100 SW5       29.60F FOG
Boston         FOG       51  51 100 SE5       29.61F VSB 1/2
Pittsburg      MOCLDY    40  37  89 NW9       29.88S WCI  34
Akron          FAIR      36  32  85 NW3       29.90F
Cleveland      FAIR      35  33  92 W5        29.94F WCI  31
Cincinnati     CLOUDY    48  34  58 N6        29.91F
Columbus       FAIR      44  44 100 E7        29.90R
Detroit        FAIR      40  35  83 SW5       29.95S WCI  37
Chicago O`Hare FAIR      38  29  70 CALM      29.97F
Minneapolis    CLOUDY    47  34  60 CALM      29.92F
Indianapolis   MOCLDY    41  30  65 NW5       29.93F
Toronto Canada MOCLDY    39  36  87 NW16      29.77F WCI  30

$$




USA.gov is the U.S. government's official web portal to all federal, state and local government web resources and services.